Date String (YYYY-MM-DD hh:mm:ss) UTC,Instrument flags,Ambient pressure (hPa),Sample flow (lpm),Bypass flow (lpm),Sample temperature (°C),Ambient temperature (°C),ASC tube jacket temperature (°C),LED temperature (°C),Box temperature (°C),Sample RH (%),Span deviation,Mass concentration (μg/m³),Mass concentration (μg/m³),Mass concentration (μg/m³)
DateTimeUTC,F1_M11,P_M11,Q1_M11,Q2_M11,T1_M11,T2_M11,T3_M11,T4_M11,T5_M11,U1_M11,ZSPAN_M11,X0_M11,X2_M11,X1_M11
2022-04-24 23:00:00,,0828.4,5.00,0.00,26.3,25.5,00.0,35.2,28.2,14.3,0000.0,0003.00,0001.10,0000.75
2022-04-24 23:01:00,,0828.4,5.00,0.00,26.3,25.5,00.0,35.2,28.2,14.3,0000.0,0002.43,0001.04,0000.75
2022-04-24 23:02:00,,0828.4,5.01,0.00,26.4,25.5,00.0,35.2,28.2,14.3,0000.0,0002.57,0001.02,0000.75
2022-04-24 23:03:00,,0828.4,5.00,0.00,26.3,25.5,00.0,35.2,28.2,14.3,0000.0,0002.90,0001.05,0000.75
2022-04-24 23:04:00,,0828.4,4.99,0.00,26.3,25.5,00.0,35.2,28.2,14.3,0000.0,0002.78,0001.07,0000.75
2022-04-24 23:05:00,,0828.4,4.99,0.00,26.4,25.5,00.0,35.2,28.2,14.2,0000.0,0002.62,0001.03,0000.75
2022-04-24 23:06:00,,0828.4,5.00,0.00,26.3,25.5,00.0,35.2,28.2,13.9,0000.0,0002.59,0001.02,0000.75
2022-04-24 23:07:00,,0828.4,5.01,0.00,26.3,25.5,00.0,35.2,28.1,14.4,0000.0,0002.66,0001.03,0000.75
2022-04-24 23:08:00,,0828.4,5.01,0.00,26.3,25.5,00.0,35.2,28.2,14.7,0000.0,0002.67,0001.04,0000.75
2022-04-24 23:09:00,,0828.3,5.00,0.00,26.3,25.5,00.0,35.2,28.2,14.6,0000.0,0003.55,0001.05,0000.76
2022-04-24 23:10:00,,0828.3,4.99,0.00,26.3,25.5,00.0,35.2,28.1,14.5,0000.0,0003.30,0001.06,0000.76
2022-04-24 23:11:00,,0828.4,5.00,0.00,26.3,25.5,00.0,35.2,28.1,14.5,0000.0,0003.39,0001.08,0000.76
2022-04-24 23:12:00,,0828.3,5.01,0.00,26.3,25.5,00.0,35.2,28.1,14.5,0000.0,0004.09,0001.08,0000.76
2022-04-24 23:13:00,,0828.3,5.01,0.00,26.3,25.5,00.0,35.3,28.1,14.7,0000.0,0003.86,0001.06,0000.74
2022-04-24 23:14:00,,0828.3,5.00,0.00,26.3,25.5,00.0,35.3,28.1,14.6,0000.0,0003.52,0001.07,0000.73
2022-04-24 23:15:00,,0828.3,5.00,0.00,26.3,25.5,00.0,35.3,28.1,14.6,0000.0,0003.61,0001.09,0000.74
2022-04-24 23:16:00,,0828.3,5.00,0.00,26.3,25.5,00.0,35.3,28.1,14.4,0000.0,0003.88,0001.18,0000.77
2022-04-24 23:17:00,,0828.4,5.00,0.00,26.3,25.5,00.0,35.3,28.1,14.4,0000.0,0003.95,0001.20,0000.77
2022-04-24 23:18:00,,0828.4,4.99,0.00,26.3,25.5,00.0,35.3,28.1,14.4,0000.0,0003.97,0001.20,0000.77
2022-04-24 23:19:00,,0828.4,5.00,0.00,26.3,25.5,00.0,35.3,28.1,14.0,0000.0,0004.00,0001.19,0000.77
2022-04-24 23:20:00,,0828.4,5.01,0.00,26.3,25.5,00.0,35.3,28.1,13.7,0000.0,0003.65,0001.16,0000.76
2022-04-24 23:21:00,,0828.4,5.00,0.00,26.3,25.5,00.0,35.3,28.1,13.9,0000.0,0004.29,0001.14,0000.75
2022-04-24 23:22:00,,0828.4,4.99,0.00,26.3,25.5,00.0,35.2,28.1,14.7,0000.0,0004.32,0001.15,0000.74
2022-04-24 23:23:00,,0828.4,5.00,0.00,26.3,25.5,00.0,35.2,28.1,14.9,0000.0,0003.68,0001.14,0000.72
2022-04-24 23:24:00,,0828.5,4.99,0.00,26.3,25.5,00.0,35.2,28.1,14.9,0000.0,0003.75,0001.16,0000.72
2022-04-24 23:25:00,,0828.4,5.00,0.00,26.3,25.5,00.0,35.2,28.1,15.0,0000.0,0003.72,0001.14,0000.72
2022-04-24 23:26:00,,0828.5,5.02,0.00,26.3,25.5,00.0,35.2,28.0,15.1,0000.0,0003.64,0001.13,0000.70
2022-04-24 23:27:00,,0828.4,5.00,0.00,26.3,25.5,00.0,35.2,28.0,15.1,0000.0,0003.49,0001.06,0000.68
2022-04-24 23:28:00,,0828.4,4.99,0.00,26.3,25.4,00.0,35.2,28.0,15.1,0000.0,0003.50,0001.08,0000.67
2022-04-24 23:29:00,,0828.5,5.00,0.00,26.2,25.4,00.0,35.2,28.0,15.0,0000.0,0003.36,0001.05,0000.66
2022-04-24 23:30:00,,0828.5,5.01,0.00,26.2,25.4,00.0,35.2,28.0,15.0,0000.0,0003.45,0001.06,0000.64
2022-04-24 23:31:00,,0828.4,5.00,0.00,26.2,25.4,00.0,35.2,28.0,15.2,0000.0,0003.06,0001.08,0000.63
2022-04-24 23:32:00,,0828.5,4.99,0.00,26.2,25.4,00.0,35.2,28.0,15.4,0000.0,0002.34,0001.07,0000.64
2022-04-24 23:33:00,,0828.5,5.02,0.00,26.2,25.4,00.0,35.2,27.9,15.6,0000.0,0002.40,0001.10,0000.65
2022-04-24 23:34:00,,0828.5,5.01,0.00,26.2,25.4,00.0,35.2,27.9,15.8,0000.0,0002.47,0001.15,0000.66
2022-04-24 23:35:00,,0828.4,5.00,0.00,26.2,25.4,00.0,35.2,27.9,15.8,0000.0,0002.44,0001.14,0000.67
2022-04-24 23:36:00,,0828.4,5.00,0.00,26.2,25.4,00.0,35.2,27.9,15.7,0000.0,0002.49,0001.18,0000.69
2022-04-24 23:37:00,,0828.4,4.99,0.00,26.1,25.4,00.0,35.2,27.9,15.6,0000.0,0002.47,0001.16,0000.71
2022-04-24 23:38:00,,0828.5,5.01,0.00,26.1,25.3,00.0,35.1,27.9,15.3,0000.0,0002.39,0001.17,0000.72
2022-04-24 23:39:00,,0828.9,5.00,0.00,26.1,25.3,00.0,35.1,27.8,15.5,0000.0,0002.29,0001.14,0000.73
2022-04-24 23:40:00,,0829.1,5.00,0.00,26.1,25.3,00.0,35.1,27.8,15.6,0000.0,0002.31,0001.14,0000.74
2022-04-24 23:41:00,,0828.8,5.00,0.00,26.1,25.2,00.0,35.1,27.8,15.7,0000.0,0002.24,0001.12,0000.75
2022-04-24 23:42:00,,0828.6,5.01,0.00,26.0,25.2,00.0,35.1,27.8,15.8,0000.0,0002.05,0001.10,0000.75
2022-04-24 23:43:00,,0828.9,5.00,0.00,26.0,25.2,00.0,35.1,27.7,15.8,0000.0,0002.12,0001.13,0000.73
2022-04-24 23:44:00,,0828.7,5.00,0.00,26.0,25.2,00.0,35.1,27.7,15.8,0000.0,0002.02,0001.11,0000.71
2022-04-24 23:45:00,,0828.6,5.00,0.00,26.0,25.2,00.0,35.0,27.7,15.7,0000.0,0001.83,0001.02,0000.68
2022-04-24 23:46:00,,0828.7,4.99,0.00,26.0,25.1,00.0,35.0,27.6,15.6,0000.0,0001.87,0001.02,0000.65
2022-04-24 23:47:00,,0828.7,5.02,0.00,25.9,25.1,00.0,35.0,27.6,15.7,0000.0,0002.53,0000.99,0000.62
2022-04-24 23:48:00,,0828.7,4.99,0.00,25.9,25.1,00.0,35.0,27.6,15.6,0000.0,0003.43,0000.94,0000.58
2022-04-24 23:49:00,,0828.6,5.00,0.00,25.8,25.0,00.0,35.0,27.6,15.6,0000.0,0003.68,0000.86,0000.55
2022-04-24 23:50:00,,0828.6,4.99,0.00,25.8,25.0,00.0,35.0,27.5,15.6,0000.0,0004.85,0000.83,0000.52
2022-04-24 23:51:00,,0828.9,4.99,0.00,25.8,25.0,00.0,34.9,27.5,15.6,0000.0,0004.81,0000.81,0000.50
2022-04-24 23:52:00,,0829.0,4.99,0.00,25.7,24.9,00.0,34.9,27.4,15.6,0000.0,0004.72,0000.78,0000.48
2022-04-24 23:53:00,,0829.0,5.01,0.00,25.7,24.9,00.0,34.9,27.4,15.6,0000.0,0005.51,0000.77,0000.46
2022-04-24 23:54:00,,0828.8,5.01,0.00,25.7,24.8,00.0,34.9,27.4,15.7,0000.0,0005.49,0000.73,0000.46
2022-04-24 23:55:00,,0828.9,4.99,0.00,25.6,24.8,00.0,34.8,27.4,15.6,0000.0,0005.49,0000.73,0000.46
2022-04-24 23:56:00,,0828.9,4.99,0.00,25.6,24.8,00.0,34.8,27.3,15.6,0000.0,0005.63,0000.75,0000.47
2022-04-24 23:57:00,,0828.9,5.01,0.00,25.6,24.7,00.0,34.8,27.3,15.6,0000.0,0005.74,0000.76,0000.48
2022-04-24 23:58:00,,0828.9,4.99,0.00,25.6,24.7,00.0,34.8,27.3,15.6,0000.0,0005.28,0000.76,0000.49
2022-04-24 23:59:00,,0828.9,4.99,0.00,25.5,24.7,00.0,34.7,27.2,15.6,0000.0,0004.05,0000.79,0000.50
